Temperature
21 20 19 20 25 28 28 28 28 28 27 26 26 26 26 26 25 24 21 20 20 20 19 19 19 19 19 19 19 19 19 19 19 19 19 19 19 19 19 19 18 18 18 18 18 18 18 18 18
20 20 20 24 28 28 28 28 28 27 27 26 26 26 26 25 23 22 21 20 20 19 19 19 19 19 19 19 19 19 19 19 19 19 19 19 19 19 18 18 18 18 18 18 18 18 18 18 18
20 20 23 28 29 28 28 28 28 27 26 26 26 26 25 24 22 21 20 20 20 19 19 19 19 19 19 19 19 19 19 19 19 19 19 19 19 18 18 18 18 18 18 18 18 18 18 18 18
20 22 25 29 28 29 29 28 28 28 27 26 26 26 24 22 22 21 20 20 20 19 19 19 19 19 19 19 19 19 19 19 19 19 18 18 18 18 18 18 18 18 18 18 18 18 18 18 18
21 26 29 29 29 29 29 28 28 28 27 27 26 26 24 22 21 21 20 20 20 20 19 19 19 19 19 19 19 18 18 18 19 18 18 18 18 18 18 18 18 18 18 18 18 18 18 18 18
25 29 29 29 29 29 29 28 28 28 27 26 26 26 23 21 21 20 20 20 20 20 19 19 19 19 19 19 19 19 18 18 19 18 18 18 18 18 18 18 18 18 18 18 18 18 18 18 18
27 29 30 30 29 29 29 28 28 28 28 27 26 26 24 22 21 20 20 20 20 20 19 19 19 19 19 19 19 19 19 18 18 18 18 18 18 18 18 18 18 18 18 18 18 18 18 18 18
26 30 30 30 29 29 29 28 27 28 27 25 26 26 24 22 21 21 20 20 20 20 19 19 19 18 18 18 19 19 19 18 18 18 18 18 18 18 18 18 18 18 18 18 18 18 18 18 18
26 30 30 30 30 29 29 29 27 27 26 25 25 25 23 22 21 21 21 20 20 19 19 19 19 19 18 18 18 18 18 18 18 18 18 18 18 18 18 18 18 18 18 18 18 18 18 18 18
29 30 30 30 30 30 29 28 28 28 27 26 25 23 22 22 21 21 21 21 20 20 19 19 19 19 18 18 18 18 18 18 18 18 18 18 18 18 18 18 18 18 18 18 18 18 18 18 18
30 30 30 30 29 29 29 28 28 28 28 27 25 24 22 22 22 22 21 21 20 20 19 19 19 19 19 18 18 18 18 18 18 18 18 18 18 18 18 18 18 18 18 18 18 18 18 18 18
30 30 30 30 29 29 29 28 28 28 27 26 25 24 23 22 22 22 21 21 20 20 19 19 19 19 19 19 18 18 18 18 18 18 18 18 18 18 18 18 18 18 18 18 18 18 18 18 18
30 30 29 29 28 28 28 28 28 27 26 25 24 23 23 23 22 22 21 21 20 19 19 19 19 19 18 19 18 18 18 18 18 18 18 18 18 18 18 18 18 18 18 18 18 18 18 18 18
30 30 30 29 29 28 29 28 28 26 25 25 24 24 23 23 22 22 21 20 20 19 19 19 18 18 18 18 18 18 18 18 18 18 18 18 18 18 18 18 18 18 18 18 18 18 18 18 18
29 30 31 30 30 29 29 29 28 26 26 25 25 24 23 23 22 22 21 20 20 19 19 19 19 18 19 18 18 18 18 18 18 18 18 18 18 18 18 18 18 18 18 18 18 18 18 18 18
31 31 31 30 30 29 30 29 28 26 26 26 25 24 23 22 22 21 21 20 20 19 19 19 19 18 18 18 18 18 18 18 18 18 18 18 18 18 18 18 18 18 18 18 18 18 18 18 18
31 31 31 31 30 30 30 29 28 26 27 26 25 25 24 23 22 21 21 20 20 19 19 19 18 18 18 18 18 18 18 18 18 18 18 18 18 18 18 18 18 18 18 18 18 18 18 18 18
31 31 31 31 31 30 30 29 29 27 27 27 26 25 24 23 22 21 21 20 20 19 19 19 18 18 18 18 18 18 18 18 18 18 18 18 18 18 18 17 18 17 17 17 17 17 17 17 17
31 31 30 30 30 30 30 29 29 28 27 27 26 25 25 23 22 21 21 20 20 19 19 19 19 18 18 18 18 18 18 18 18 18 18 18 18 18 18 17 17 17 17 17 17 17 17 17 17
31 31 31 30 30 30 29 29 29 28 27 27 26 26 25 24 22 21 20 20 20 19 19 19 19 19 19 18 18 18 18 18 18 17 18 17 18 18 17 17 17 17 17 17 17 17 17 17 17
31 31 31 30 30 30 30 29 29 28 27 26 26 25 25 24 23 22 21 20 20 19 19 19 19 19 19 18 18 18 18 18 18 17 17 17 18 18 18 17 17 17 17 17 17 17 17 17 17
31 31 31 30 30 31 30 30 29 29 28 27 26 26 25 24 23 22 21 21 20 20 19 19 19 19 19 18 18 18 18 18 18 17 17 17 17 17 17 17 17 17 17 17 17 17 17 17 17
31 31 31 31 31 31 30 30 30 29 28 28 27 26 25 24 23 22 22 21 20 20 19 19 19 19 19 18 18 18 18 18 17 17 17 17 17 17 17 17 17 17 17 17 16 16 16 16 17
31 31 30 31 31 30 30 30 30 30 29 28 27 26 25 24 23 22 22 21 20 20 19 19 19 19 19 19 18 18 18 17 17 17 17 17 17 17 17 17 17 16 16 16 16 16 16 16 16
31 31 30 30 30 30 30 30 30 29 29 28 27 26 25 24 23 22 22 21 20 20 19 19 18 18 18 18 18 18 18 18 17 17 17 17 17 17 17 16 16 16 16 16 16 16 16 16 16
31 31 30 29 30 30 30 30 30 28 27 27 26 25 24 24 23 22 21 21 20 20 20 19 18 18 18 18 18 18 18 17 17 17 17 17 17 17 16 16 16 16 16 16 16 16 16 15 15
31 31 32 31 30 30 30 30 29 28 27 27 26 25 24 24 23 23 22 21 21 20 20 19 18 18 18 18 18 18 17 17 17 17 17 16 16 16 16 16 16 16 16 16 15 15 15 15 15
31 31 31 30 29 29 30 30 30 28 27 27 26 26 25 24 23 23 22 21 21 20 20 19 18 18 18 18 18 17 17 17 17 17 17 16 16 16 16 16 16 16 16 15 15 15 15 15 15
30 30 30 30 30 29 29 30 30 28 28 27 26 25 24 24 23 22 22 21 21 20 20 19 18 18 18 18 17 17 17 17 17 16 16 16 16 16 16 15 15 15 15 15 15 15 15 14 14
31 30 30 29 29 29 29 29 29 29 28 27 26 25 24 23 23 22 21 21 20 20 19 19 18 18 18 17 17 17 17 17 16 16 16 16 16 15 15 15 15 15 15 15 15 15 14 14 14
Wind_Speed
11 8 5 4 3 3 10 9 8 8 6 7 7 6 7 8 7 5 5 5 5 5 6 6 6 5 5 6 6 6 7 8 9 8 8 8 8 7 8 7 7 7 8 9 9 9 9 10 10
7 5 5 4 1 7 10 9 9 9 7 5 6 6 7 8 7 6 4 5 5 5 6 7 8 6 5 5 5 5 6 7 8 8 8 7 7 6 6 6 5 5 7 8 9 9 9 9 9
6 5 4 1 7 9 9 9 8 8 6 5 5 6 6 6 5 4 5 5 5 6 6 9 8 6 6 5 3 5 7 7 8 8 7 7 6 5 5 5 4 4 5 7 9 9 9 9 10
4 4 3 3 10 10 8 7 6 6 6 6 5 6 6 6 4 5 6 6 6 6 6 9 7 7 6 6 7 8 8 8 8 8 7 6 5 5 4 4 3 4 5 6 8 7 8 9 10
4 3 2 8 11 9 8 6 5 6 6 6 6 7 8 6 6 7 6 6 6 6 6 9 8 6 7 7 7 8 8 8 7 7 6 5 5 4 4 3 3 4 4 6 7 6 6 6 8
3 1 5 9 10 8 8 6 5 7 7 6 6 7 7 6 6 6 6 5 5 5 5 8 8 6 6 7 7 7 7 6 6 6 5 5 4 3 3 3 3 3 5 6 6 6 5 6 7
2 3 7 9 8 8 7 5 5 6 7 6 4 6 6 6 5 5 5 5 5 5 5 5 6 6 6 6 7 7 6 5 5 5 5 4 3 3 2 3 2 3 4 4 5 4 5 5 6
4 1 6 8 8 9 6 6 6 6 7 5 3 5 5 5 5 5 5 5 5 5 5 4 4 4 4 6 7 6 5 5 4 5 4 3 3 3 3 2 3 3 3 3 3 3 3 5 6
4 2 7 8 8 8 6 6 6 5 6 6 5 7 7 8 6 6 6 5 5 4 4 4 4 4 3 4 6 5 5 4 3 4 4 3 2 2 3 3 4 3 3 3 3 3 3 5 7
2 5 8 6 6 7 6 5 5 4 6 6 7 8 9 8 7 6 5 5 5 5 4 4 3 3 3 3 3 2 3 3 2 3 2 2 2 1 1 5 3 3 3 3 3 4 5 5 5
2 5 5 5 5 5 6 5 4 4 5 5 6 8 8 8 6 5 5 4 5 4 4 4 4 3 2 2 2 2 2 2 3 3 2 2 1 1 1 1 3 3 3 2 4 4 2 1 1
2 4 3 4 4 4 5 4 5 5 5 5 6 8 8 7 6 5 4 4 4 4 4 3 3 3 3 2 2 2 2 2 2 3 2 2 1 1 1 1 1 1 1 1 1 1 1 1 0
1 2 3 4 5 5 5 5 5 5 5 6 8 8 7 6 5 4 3 4 4 4 3 4 3 3 2 2 1 2 2 1 2 2 2 2 1 1 1 1 1 1 1 1 1 1 1 0 1
2 1 2 4 4 4 4 4 3 4 5 7 7 6 6 5 5 4 4 4 4 3 3 3 3 3 2 2 1 1 1 1 1 1 2 2 1 1 1 1 0 1 1 0 0 0 1 1 0
2 2 3 3 3 3 3 3 4 5 6 6 6 6 5 4 4 3 3 3 4 3 3 3 3 3 2 1 0 0 1 1 1 1 1 1 1 1 1 1 1 1 0 1 1 1 1 1 1
4 4 2 3 3 3 5 2 5 5 6 6 5 5 5 4 3 3 3 3 3 3 3 2 2 2 2 1 0 0 1 1 1 1 1 1 2 1 1 1 1 0 1 1 1 1 0 1 1
3 1 1 3 2 3 3 1 4 5 5 5 5 5 4 4 3 2 3 3 3 3 3 3 2 2 1 1 1 0 1 1 1 1 1 2 1 1 1 1 1 1 1 1 1 1 1 1 1
2 2 1 1 1 3 3 1 3 5 4 4 5 5 4 3 3 3 3 3 3 3 3 2 3 2 1 1 1 1 1 1 1 1 2 1 1 1 1 0 1 1 1 1 1 0 1 1 1
4 3 2 1 1 2 3 2 2 4 4 4 5 5 4 4 4 4 4 4 4 3 3 3 3 3 2 1 1 1 0 1 1 1 2 2 1 1 1 2 1 1 1 2 2 1 1 1 1
5 4 1 1 1 2 2 2 2 4 4 3 4 5 5 5 5 4 4 4 4 4 4 4 3 3 3 2 1 1 0 0 1 1 2 2 1 1 1 1 1 1 1 1 2 2 2 1 1
5 4 3 2 1 4 3 3 4 5 4 4 4 4 5 5 6 6 5 4 4 4 4 3 3 3 2 2 2 1 1 1 0 1 1 2 2 1 2 1 2 2 1 1 1 2 2 2 1
4 2 3 4 5 3 4 3 3 6 5 4 5 5 5 5 5 6 6 5 4 4 4 4 3 2 2 2 2 1 0 0 1 1 1 1 1 1 1 1 1 2 1 1 2 1 2 3 2
3 1 4 6 7 5 4 5 2 5 4 4 5 5 5 5 6 6 6 5 5 4 4 4 4 3 2 2 2 2 1 1 0 0 1 1 1 1 1 1 1 1 1 2 2 2 3 2 2
2 4 5 7 7 6 4 5 2 2 1 2 4 5 5 6 6 6 6 5 5 5 5 4 4 3 3 2 2 1 1 1 1 1 0 1 0 0 1 1 1 1 1 1 1 1 1 2 2
6 7 5 5 5 3 1 4 1 3 2 2 3 4 6 6 6 6 6 6 5 5 5 4 4 3 3 2 2 2 1 1 1 1 1 2 1 1 1 1 1 2 1 1 1 0 1 1 2
6 8 7 6 6 3 2 3 2 3 3 3 3 5 6 7 7 6 6 5 5 5 5 5 4 4 3 3 2 2 2 1 0 1 1 1 2 2 2 1 1 1 2 2 1 1 1 1 2
6 6 7 8 8 7 3 2 3 4 4 4 5 6 6 6 6 6 6 5 5 5 5 5 4 3 3 2 3 2 1 1 1 1 1 1 2 2 1 1 1 1 2 2 2 1 2 1 2
5 5 5 7 6 7 4 4 1 4 4 4 5 5 6 6 6 5 5 5 4 5 5 4 4 4 3 2 2 2 1 1 0 1 1 2 2 2 1 2 1 2 2 2 2 1 1 2 2
5 6 5 6 6 8 7 2 3 3 4 5 5 5 5 5 5 5 4 4 5 5 5 5 4 3 3 2 2 2 1 1 0 0 1 1 2 2 2 2 2 2 2 2 2 2 2 3 3
6 6 6 7 6 7 8 3 4 2 3 5 5 5 5 5 5 5 5 4 4 4 4 4 3 3 3 3 2 2 2 1 0 0 1 1 1 1 1 2 1 2 2 2 2 3 3 3 4
Wind_Direction
178 182 205 231 231 85 65 60 59 60 60 58 52 45 48 39 29 62 77 85 80 91 93 105 99 100 92 100 118 130 134 136 138 139 134 131 137 145 154 158 163 175 180 180 175 171 169 168 169
174 186 228 242 9 72 67 58 63 58 71 74 59 53 58 58 52 82 97 93 99 99 101 93 96 96 91 94 110 127 133 138 141 142 138 133 131 137 148 150 162 175 173 175 172 172 171 172 172
182 222 262 309 50 56 65 63 71 77 70 55 64 53 49 55 60 75 92 113 110 101 101 96 94 90 86 86 97 132 127 125 130 134 134 132 132 134 134 140 149 153 156 163 167 173 175 175 176
210 228 232 64 66 58 63 71 80 85 74 60 68 76 72 56 55 83 105 116 114 109 105 101 97 92 82 75 75 108 113 116 120 127 129 124 120 122 119 111 116 139 150 156 158 165 173 178 178
242 258 96 76 70 66 70 75 77 72 69 69 70 81 78 64 79 98 109 113 111 107 105 106 99 89 80 80 84 91 97 103 112 119 121 118 115 116 112 105 103 128 144 151 151 154 164 178 182
257 255 69 74 73 73 75 79 86 77 78 77 75 84 79 83 95 106 111 110 105 106 109 112 114 98 85 83 86 89 95 101 107 113 114 111 107 99 94 95 93 113 134 147 157 161 164 175 183
310 39 62 68 78 78 71 73 70 72 75 66 68 81 96 97 100 111 113 110 106 104 103 105 119 119 112 94 85 88 90 93 100 107 109 108 104 97 96 91 84 97 120 140 153 160 163 170 180
301 353 72 69 72 77 83 84 71 63 74 75 58 74 101 117 123 118 115 113 106 102 100 100 103 102 112 114 104 92 88 90 99 106 112 122 142 142 134 131 101 99 111 129 149 154 168 179 179
270 51 63 59 67 83 92 89 81 80 94 85 69 66 100 124 130 125 116 115 114 107 103 100 103 103 97 99 109 122 121 116 136 134 137 161 154 133 141 85 83 89 102 118 137 147 171 187 176
282 56 59 51 58 85 94 84 93 110 95 90 93 94 115 129 135 131 122 121 121 119 114 106 96 92 101 99 100 104 110 105 97 86 102 104 84 60 62 101 111 111 125 143 152 168 191 212 185
29 49 55 69 74 90 98 93 93 96 83 87 108 125 135 139 138 133 127 121 119 125 121 113 106 101 94 91 93 83 90 95 95 80 86 98 70 77 73 107 142 157 171 176 160 189 191 156 134
72 58 56 83 101 100 89 93 84 63 71 90 115 131 139 144 140 141 134 132 125 123 121 113 110 103 86 71 78 90 86 89 74 74 38 58 56 31 43 25 73 115 118 124 152 149 104 100 131
91 71 86 106 113 101 101 92 85 85 92 110 122 135 145 145 140 135 127 124 122 127 125 120 110 103 107 100 38 81 72 62 71 49 46 23 37 36 46 30 30 63 91 127 152 107 111 175 183
35 71 116 134 134 131 118 107 110 102 119 125 130 137 144 145 144 141 142 143 142 140 133 127 124 116 112 114 96 33 61 75 51 39 26 353 3 32 31 73 68 67 73 46 275 169 188 217 302
225 185 146 142 164 161 165 117 111 132 140 138 137 135 134 140 148 158 159 161 153 148 141 137 136 124 128 134 145 101 30 43 28 43 31 352 352 26 11 47 72 56 115 176 217 239 196 195 180
216 220 165 128 179 188 240 87 117 148 160 155 150 146 143 144 149 150 158 164 161 154 147 152 148 136 146 146 143 1 5 27 4 12 48 44 19 352 326 27 28 338 236 194 180 241 218 217 208
204 256 55 120 177 212 232 88 126 162 173 169 163 157 154 148 144 148 161 160 158 156 155 158 154 142 148 140 152 161 52 25 360 9 33 57 45 351 320 9 3 274 266 266 259 119 277 236 245
322 328 353 17 140 222 226 180 147 172 182 176 171 167 164 156 147 144 150 144 137 133 137 143 142 134 142 150 149 121 65 48 32 36 39 26 30 18 338 70 359 312 336 313 318 294 269 267 269
293 292 319 36 109 241 226 217 181 173 190 191 185 176 170 154 135 131 135 133 131 132 133 137 139 137 154 165 195 182 111 37 45 52 40 27 10 11 348 346 14 326 343 324 307 284 215 235 251
256 266 275 132 135 249 233 233 187 179 192 200 192 181 176 160 142 138 143 145 140 136 140 148 158 156 176 179 205 213 222 340 57 38 50 25 17 359 19 355 325 344 334 318 313 295 291 267 254
253 269 274 277 215 209 237 216 184 171 180 181 188 185 176 169 164 159 158 157 152 150 153 153 161 164 184 192 193 182 174 208 125 65 63 32 19 33 11 350 326 341 320 336 305 297 291 291 278
260 286 260 245 252 248 257 275 173 172 177 183 187 184 181 174 170 167 165 164 164 162 153 146 146 158 172 186 201 205 235 316 355 351 53 53 30 20 19 340 329 314 320 343 309 324 296 285 277
296 291 249 250 261 267 245 272 157 169 191 187 190 186 181 177 171 167 165 162 164 159 153 149 148 146 154 186 195 220 245 271 305 46 80 356 40 16 2 356 343 322 324 347 347 349 316 288 285
202 220 226 235 250 258 261 271 259 164 196 168 168 172 177 173 169 166 160 156 160 159 158 155 153 154 155 163 169 200 268 298 337 360 335 269 276 36 12 341 337 317 325 338 327 328 335 323 317
229 258 258 246 241 264 158 269 333 83 104 152 164 162 168 169 167 163 160 162 162 163 164 161 155 159 162 167 177 194 222 223 246 292 309 297 313 344 8 338 319 325 315 301 298 278 317 310 297
249 269 279 290 296 301 211 267 77 101 110 123 143 149 157 162 164 164 164 169 172 172 172 166 162 167 172 176 181 196 226 239 268 312 318 319 327 349 341 306 300 309 308 295 283 278 269 290 278
250 256 285 283 281 284 271 210 146 139 143 141 140 147 153 158 162 164 165 171 173 170 168 167 162 168 179 185 180 183 193 264 311 299 288 315 327 329 332 315 293 287 291 295 283 291 297 298 285
274 280 263 273 286 283 270 250 225 167 172 158 154 152 151 155 158 158 163 167 165 161 154 158 159 164 169 169 167 149 154 163 223 284 344 339 335 340 326 310 300 290 285 279 275 270 280 273 277
224 235 259 274 286 289 290 321 70 164 178 176 164 155 154 157 155 150 153 154 152 152 150 152 154 157 157 145 146 145 148 155 157 333 330 334 340 344 336 328 315 308 314 308 295 292 282 272 274
256 262 257 269 273 276 287 301 92 144 169 168 162 152 151 152 151 145 140 138 140 141 140 139 147 148 145 144 144 146 148 155 165 3 309 340 358 356 359 350 327 303 300 295 289 292 296 290 286
Height
1499 1500 1500 1502 1496 1490 1493 1491 1488 1490 1492 1496 1497 1495 1495 1498 1500 1508 1509 1507 1507 1507 1506 1504 1503 1502 1502 1502 1503 1503 1504 1505 1506 1507 1508 1509 1510 1510 1511 1511 1511 1511 1511 1512 1515 1517 1519 1521 1523
1501 1501 1502 1500 1490 1495 1497 1491 1492 1494 1497 1498 1498 1498 1498 1501 1505 1508 1508 1508 1508 1508 1507 1506 1505 1504 1504 1504 1503 1504 1505 1506 1507 1508 1509 1510 1510 1511 1511 1510 1509 1508 1508 1509 1513 1516 1518 1520 1522
1501 1502 1503 1492 1491 1495 1498 1493 1494 1497 1499 1499 1499 1501 1502 1506 1508 1509 1509 1509 1509 1509 1509 1507 1506 1506 1505 1504 1501 1500 1504 1507 1508 1509 1510 1511 1511 1511 1511 1510 1508 1506 1507 1508 1512 1515 1518 1520 1522
1503 1504 1500 1492 1495 1493 1493 1494 1495 1496 1499 1500 1500 1502 1506 1510 1510 1510 1510 1510 1510 1511 1511 1509 1508 1508 1507 1505 1501 1499 1505 1508 1509 1510 1511 1512 1512 1512 1511 1510 1507 1506 1507 1508 1511 1515 1517 1519 1521
1504 1500 1491 1492 1494 1493 1493 1496 1496 1497 1499 1501 1501 1503 1508 1512 1511 1511 1511 1511 1512 1512 1512 1511 1510 1510 1509 1508 1506 1507 1509 1510 1511 1512 1513 1513 1513 1513 1512 1511 1509 1507 1508 1509 1512 1515 1517 1519 1521
1503 1495 1493 1497 1496 1494 1495 1497 1497 1498 1500 1503 1503 1504 1510 1513 1512 1513 1513 1513 1513 1513 1513 1513 1511 1511 1511 1511 1511 1511 1511 1512 1513 1513 1514 1514 1515 1515 1514 1513 1511 1510 1510 1511 1513 1516 1518 1519 1521
1502 1493 1494 1494 1496 1496 1498 1499 1498 1499 1501 1504 1505 1506 1511 1513 1513 1513 1514 1514 1514 1514 1514 1514 1515 1514 1513 1513 1513 1514 1514 1514 1515 1515 1516 1516 1516 1516 1516 1515 1514 1513 1513 1514 1515 1517 1518 1519 1520
1502 1494 1492 1493 1495 1498 1499 1500 1502 1501 1504 1508 1507 1507 1511 1514 1514 1514 1515 1515 1515 1515 1515 1515 1516 1516 1516 1516 1515 1515 1516 1516 1517 1517 1517 1518 1518 1518 1517 1517 1516 1516 1516 1516 1517 1518 1519 1520 1521
1503 1495 1496 1494 1495 1497 1499 1500 1503 1505 1506 1508 1509 1510 1513 1514 1515 1515 1515 1516 1516 1516 1516 1517 1517 1517 1517 1518 1517 1517 1518 1518 1518 1519 1519 1519 1519 1520 1519 1519 1518 1518 1518 1518 1519 1519 1520 1521 1521
1499 1495 1496 1495 1494 1496 1500 1501 1503 1503 1505 1508 1510 1513 1514 1515 1515 1516 1516 1516 1517 1517 1518 1518 1518 1518 1518 1518 1518 1519 1520 1519 1520 1520 1520 1520 1520 1520 1520 1519 1519 1519 1519 1519 1519 1520 1521 1522 1523
1498 1497 1496 1497 1498 1498 1500 1502 1503 1502 1504 1508 1510 1512 1514 1515 1516 1516 1517 1517 1518 1518 1519 1519 1519 1519 1519 1519 1520 1520 1520 1520 1521 1520 1520 1520 1520 1521 1521 1521 1520 1520 1520 1520 1520 1521 1522 1523 1523
1499 1498 1498 1498 1500 1500 1501 1502 1504 1505 1507 1510 1511 1513 1514 1515 1516 1517 1517 1518 1519 1519 1519 1520 1520 1520 1520 1520 1520 1521 1521 1521 1522 1521 1521 1521 1521 1521 1521 1521 1521 1521 1521 1521 1521 1522 1522 1522 1523
1498 1498 1499 1500 1501 1502 1503 1503 1505 1508 1509 1510 1512 1514 1515 1516 1517 1518 1519 1519 1520 1520 1520 1520 1520 1520 1520 1520 1520 1521 1522 1522 1522 1521 1521 1521 1521 1521 1521 1520 1520 1521 1521 1521 1521 1521 1522 1522 1523
1499 1499 1499 1500 1501 1502 1502 1504 1506 1509 1510 1511 1513 1514 1515 1517 1518 1518 1519 1519 1520 1521 1521 1521 1521 1521 1520 1521 1521 1521 1522 1522 1523 1522 1522 1521 1522 1521 1521 1521 1520 1521 1521 1521 1521 1521 1521 1522 1522
1500 1498 1497 1498 1500 1501 1502 1502 1505 1508 1510 1512 1513 1515 1516 1517 1518 1519 1519 1520 1520 1521 1521 1521 1521 1521 1521 1521 1521 1522 1522 1523 1523 1522 1522 1521 1522 1521 1521 1521 1521 1521 1521 1520 1520 1521 1521 1521 1521
1496 1494 1496 1497 1498 1500 1501 1504 1505 1508 1509 1511 1512 1514 1516 1517 1518 1519 1519 1520 1520 1521 1521 1521 1522 1522 1521 1522 1522 1523 1523 1523 1522 1522 1522 1521 1521 1521 1521 1521 1521 1520 1521 1521 1520 1520 1521 1521 1521
1493 1496 1496 1496 1496 1497 1497 1501 1503 1507 1508 1509 1511 1513 1515 1517 1518 1518 1519 1519 1520 1520 1520 1520 1521 1521 1522 1522 1522 1522 1522 1522 1522 1522 1522 1521 1521 1521 1521 1521 1520 1520 1521 1520 1520 1520 1520 1520 1520
1498 1495 1496 1496 1494 1495 1496 1499 1502 1506 1507 1508 1510 1512 1514 1516 1517 1518 1519 1519 1519 1520 1520 1520 1520 1521 1521 1522 1522 1522 1522 1522 1522 1522 1521 1521 1521 1520 1520 1521 1520 1520 1520 1520 1519 1519 1518 1519 1519
1493 1495 1496 1495 1493 1495 1496 1498 1499 1503 1505 1506 1508 1510 1513 1515 1517 1517 1518 1518 1519 1519 1519 1520 1520 1521 1521 1522 1522 1522 1522 1522 1522 1522 1521 1520 1520 1520 1520 1520 1519 1519 1519 1518 1519 1518 1518 1518 1518
1493 1495 1495 1494 1493 1495 1496 1497 1497 1501 1503 1505 1507 1509 1511 1514 1515 1516 1517 1518 1518 1519 1519 1520 1520 1521 1521 1521 1521 1521 1521 1522 1522 1522 1521 1520 1520 1519 1520 1519 1519 1519 1518 1517 1517 1517 1517 1518 1517
1492 1493 1493 1494 1493 1492 1495 1498 1495 1498 1502 1505 1506 1508 1510 1512 1514 1515 1516 1517 1518 1518 1519 1519 1520 1520 1520 1521 1521 1521 1521 1521 1522 1521 1521 1520 1519 1519 1518 1518 1518 1518 1517 1517 1516 1516 1516 1517 1517
1492 1488 1490 1493 1495 1493 1494 1502 1494 1493 1498 1501 1504 1506 1508 1510 1512 1514 1515 1516 1517 1518 1518 1519 1519 1519 1520 1520 1521 1521 1521 1521 1521 1520 1520 1520 1519 1518 1518 1517 1517 1516 1516 1516 1516 1515 1515 1515 1516
1489 1488 1489 1490 1491 1492 1492 1497 1493 1491 1495 1497 1500 1503 1506 1509 1511 1512 1514 1515 1517 1517 1518 1518 1518 1519 1519 1519 1520 1520 1521 1521 1521 1520 1519 1519 1519 1517 1517 1516 1516 1515 1515 1514 1514 1514 1514 1514 1514
1488 1489 1488 1487 1487 1501 1493 1496 1496 1488 1493 1494 1498 1501 1505 1507 1510 1512 1513 1514 1516 1517 1517 1518 1518 1518 1519 1519 1519 1519 1520 1520 1520 1519 1519 1519 1518 1517 1516 1515 1514 1514 1514 1513 1513 1512 1512 1512 1512
1487 1491 1499 1501 1500 1499 1488 1493 1493 1489 1490 1493 1496 1500 1503 1506 1508 1510 1512 1513 1514 1515 1516 1517 1517 1518 1518 1519 1519 1519 1519 1519 1519 1518 1518 1518 1518 1517 1515 1514 1513 1513 1512 1512 1511 1511 1511 1511 1510
1485 1486 1502 1511 1505 1493 1490 1493 1488 1489 1492 1495 1497 1499 1502 1505 1507 1509 1511 1512 1513 1514 1515 1516 1517 1517 1518 1518 1518 1518 1518 1519 1518 1517 1517 1517 1516 1515 1514 1513 1512 1512 1511 1511 1510 1510 1509 1509 1509
1485 1484 1480 1488 1491 1496 1490 1487 1487 1488 1492 1494 1496 1499 1501 1503 1506 1508 1509 1511 1512 1513 1514 1515 1516 1516 1517 1517 1517 1517 1517 1517 1517 1516 1516 1516 1514 1514 1513 1512 1511 1510 1510 1509 1509 1508 1507 1507 1507
1482 1480 1484 1489 1504 1505 1494 1489 1486 1489 1490 1492 1495 1497 1500 1503 1505 1507 1508 1509 1511 1512 1513 1514 1515 1515 1515 1516 1516 1516 1516 1516 1515 1515 1514 1513 1513 1512 1511 1511 1510 1509 1508 1507 1507 1507 1506 1506 1505
1485 1485 1486 1485 1488 1500 1502 1492 1480 1484 1487 1490 1493 1497 1499 1502 1504 1505 1507 1509 1510 1511 1512 1513 1514 1514 1514 1514 1514 1515 1515 1514 1514 1514 1513 1512 1512 1511 1510 1509 1508 1508 1507 1506 1505 1505 1504 1504 1504
1479 1480 1482 1493 1495 1491 1493 1491 1479 1482 1485 1489 1492 1496 1499 1501 1503 1505 1506 1508 1509 1510 1511 1512 1513 1513 1513 1513 1513 1513 1513 1513 1513 1513 1512 1511 1510 1509 1508 1508 1507 1506 1505 1505 1504 1503 1503 1502 1501